Tracking 29781 objects as of 14-Oct-2024
HD Live streaming from Space Station
objects crossing your sky now

BREEZE-M DEB

Track BREEZE-M DEB now!
10-day predictions


NORAD ID: 39174
Int'l Code: 2013-026C
Perigee: 371.2 km
Apogee: 14,621.4 km
Inclination: 50.7 °
Period: 270.9 minutes
Semi major axis: 13867 km
RCS: Unknown
Launch date: June 3, 2013
Source: Commonwealth of Independent States (former USSR) (CIS)
Launch site: TYURATAM MISSILE AND SPACE COMPLEX (TTMTR)

Note: This is SATELLITE DEBRIS
Your satellite tracking list
Your tracking list is empty




NASA's NSSDC Master Catalog

Two Line Element Set (TLE):
1 39174U 13026C   24286.68541237  .00004259  00000-0  17474-2 0  9999
2 39174  50.6790 132.9424 5138073 142.8174 267.3394  5.31637679218655
Source of the keplerian elements: AFSPC